AAL164 PHNL-KLAX

Flight info

Callsign AAL164
Flight time N/A
Altitude 33000
Route MKK5 KOLEA CLUTS R465 CIVIT/N0447F350 R585 GITLE ADUMM GALIP R585 AUDIA SNAXX RYDRR2
Aircraft A321/M-SDE3FGHIRWY/LB1

Departure

Time N/A
Airport Daniel K. Inouye International Airport (PHNL)

Arrival

Time 2026-04-24 03:37
Airport Los Angeles International Airport (KLAX)
Time Latitude Longitude Altitude Speed Heading
2026-04-24 00:55 27.67076 -146.20370 33060 ft 483 kts 62°
2026-04-24 00:56 27.69964 -146.13522 33056 ft 484 kts 62°
2026-04-24 00:56 27.72828 -146.06708 33080 ft 484 kts 62°
2026-04-24 00:57 27.75696 -145.99859 33079 ft 482 kts 62°
2026-04-24 00:58 27.79987 -145.89633 33072 ft 479 kts 62°
2026-04-24 00:58 27.82830 -145.82827 33069 ft 478 kts 63°
2026-04-24 00:59 27.85662 -145.76027 33059 ft 478 kts 63°
2026-04-24 00:59 27.88493 -145.69236 33069 ft 478 kts 63°
2026-04-24 01:00 27.93907 -145.56237 33074 ft 475 kts 63°
2026-04-24 01:01 27.96705 -145.49479 33051 ft 474 kts 64°
2026-04-24 01:01 27.99510 -145.42709 33035 ft 476 kts 64°
2026-04-24 01:02 28.02318 -145.35914 33054 ft 477 kts 64°
2026-04-24 01:02 28.05124 -145.29117 33081 ft 476 kts 64°
2026-04-24 01:03 28.07914 -145.22336 33070 ft 474 kts 65°
2026-04-24 01:03 28.10698 -145.15557 33078 ft 474 kts 65°
2026-04-24 01:04 28.13483 -145.08780 33081 ft 474 kts 65°
2026-04-24 01:04 28.16266 -145.02003 33102 ft 475 kts 65°
2026-04-24 01:05 28.19052 -144.95205 33081 ft 476 kts 65°
2026-04-24 01:05 28.21820 -144.88446 33069 ft 476 kts 65°
2026-04-24 01:06 28.24596 -144.81632 33081 ft 476 kts 65°
2026-04-24 01:06 28.27373 -144.74796 33080 ft 477 kts 65°
2026-04-24 01:07 28.30147 -144.67939 33081 ft 479 kts 65°
2026-04-24 01:07 28.32953 -144.61018 33097 ft 488 kts 65°
2026-04-24 01:08 28.35809 -144.53976 33097 ft 492 kts 66°
2026-04-24 01:08 28.38669 -144.46899 33109 ft 494 kts 66°
2026-04-24 01:09 28.41534 -144.39802 33109 ft 495 kts 65°
2026-04-24 01:09 28.44396 -144.32690 33121 ft 495 kts 66°
2026-04-24 01:10 28.47249 -144.25590 33142 ft 493 kts 66°
2026-04-24 01:10 28.50091 -144.18508 33140 ft 492 kts 66°
2026-04-24 01:11 28.52921 -144.11441 33140 ft 491 kts 66°
2026-04-24 01:11 28.55747 -144.04386 33143 ft 490 kts 66°
2026-04-24 01:12 28.58567 -143.97312 33135 ft 491 kts 66°
2026-04-24 01:12 28.61379 -143.90228 33117 ft 491 kts 66°
2026-04-24 01:13 28.64195 -143.83143 33116 ft 492 kts 66°
2026-04-24 01:13 28.67019 -143.76045 33127 ft 493 kts 66°
2026-04-24 01:14 28.69839 -143.68923 33108 ft 495 kts 65°
2026-04-24 01:14 28.72669 -143.61770 33157 ft 494 kts 66°
2026-04-24 01:15 28.75479 -143.54655 33167 ft 491 kts 66°
2026-04-24 01:15 28.78247 -143.47619 33172 ft 489 kts 66°
2026-04-24 01:16 28.81015 -143.40566 33165 ft 487 kts 66°
2026-04-24 01:16 28.83778 -143.33518 33169 ft 486 kts 66°
2026-04-24 01:17 28.86536 -143.26481 33148 ft 487 kts 67°
2026-04-24 01:17 28.89297 -143.19411 33125 ft 489 kts 66°
2026-04-24 01:18 28.92071 -143.12305 33126 ft 491 kts 66°
2026-04-24 01:18 28.94854 -143.05170 33127 ft 492 kts 66°
2026-04-24 01:19 28.97634 -142.98025 33147 ft 493 kts 67°
2026-04-24 01:19 29.00428 -142.90843 33125 ft 496 kts 67°
2026-04-24 01:20 29.03226 -142.83608 33131 ft 499 kts 67°
2026-04-24 01:20 29.06026 -142.76342 33125 ft 500 kts 67°
2026-04-24 01:21 29.08832 -142.69055 33140 ft 501 kts 67°
2026-04-24 01:21 29.11645 -142.61754 33162 ft 503 kts 67°
2026-04-24 01:22 29.14458 -142.54432 33152 ft 503 kts 67°
2026-04-24 01:22 29.17284 -142.47090 33141 ft 505 kts 67°
2026-04-24 01:23 29.20104 -142.39732 33150 ft 506 kts 67°
2026-04-24 01:23 29.22904 -142.32404 33165 ft 506 kts 67°
2026-04-24 01:24 29.25721 -142.25006 33162 ft 507 kts 68°
2026-04-24 01:24 29.28533 -142.17602 33164 ft 507 kts 68°
2026-04-24 01:25 29.31343 -142.10182 33172 ft 508 kts 68°
2026-04-24 01:25 29.34153 -142.02749 33170 ft 508 kts 68°
2026-04-24 01:26 29.36963 -141.95310 33182 ft 509 kts 68°
2026-04-24 01:26 29.39296 -141.89114 33177 ft 510 kts 68°
2026-04-24 01:27 29.42123 -141.81597 33179 ft 510 kts 68°
2026-04-24 01:27 29.44923 -141.74178 33174 ft 511 kts 68°
2026-04-24 01:28 29.47732 -141.66687 33194 ft 511 kts 68°
2026-04-24 01:28 29.50529 -141.59186 33185 ft 512 kts 68°
2026-04-24 01:29 29.53335 -141.51670 33182 ft 512 kts 68°
2026-04-24 01:29 29.56160 -141.44152 33193 ft 513 kts 68°
2026-04-24 01:30 29.58963 -141.36615 33212 ft 513 kts 68°
2026-04-24 01:30 29.61751 -141.29064 33198 ft 514 kts 68°
2026-04-24 01:31 29.64568 -141.21515 33194 ft 514 kts 68°
2026-04-24 01:31 29.67378 -141.13955 33192 ft 514 kts 68°
2026-04-24 01:32 29.70163 -141.06384 33198 ft 515 kts 68°
2026-04-24 01:32 29.72942 -140.98788 33206 ft 515 kts 68°
2026-04-24 01:33 29.75735 -140.91203 33191 ft 515 kts 68°
2026-04-24 01:33 29.78519 -140.83595 33190 ft 516 kts 68°
2026-04-24 01:34 29.81310 -140.75977 33192 ft 517 kts 68°
2026-04-24 01:34 29.84106 -140.68352 33195 ft 517 kts 68°
2026-04-24 01:35 29.86884 -140.60720 33197 ft 517 kts 68°
2026-04-24 01:35 29.89648 -140.53074 33202 ft 517 kts 68°
2026-04-24 01:36 29.92440 -140.45431 33207 ft 517 kts 68°
2026-04-24 01:36 29.95203 -140.37777 33212 ft 517 kts 69°
2026-04-24 01:37 29.97831 -140.30046 33212 ft 518 kts 70°
2026-04-24 01:37 30.00336 -140.22262 33216 ft 518 kts 71°
2026-04-24 01:38 30.02831 -140.14460 33217 ft 519 kts 70°
2026-04-24 01:38 30.05349 -140.06728 33210 ft 518 kts 70°
2026-04-24 01:39 30.07905 -139.98944 33196 ft 518 kts 70°
2026-04-24 01:39 30.10456 -139.91157 33197 ft 519 kts 70°
2026-04-24 01:40 30.12975 -139.83343 33209 ft 519 kts 70°
2026-04-24 01:40 30.15504 -139.75523 33199 ft 520 kts 70°
2026-04-24 01:41 30.18044 -139.67688 33197 ft 521 kts 70°
2026-04-24 01:41 30.20578 -139.59854 33202 ft 520 kts 70°
2026-04-24 01:42 30.23097 -139.52005 33204 ft 521 kts 70°
2026-04-24 01:42 30.25623 -139.44150 33208 ft 521 kts 70°
2026-04-24 01:43 30.28134 -139.36279 33205 ft 522 kts 70°
2026-04-24 01:43 30.30647 -139.28397 33196 ft 522 kts 70°
2026-04-24 01:44 30.33165 -139.20503 33214 ft 522 kts 70°
2026-04-24 01:44 30.35676 -139.12619 33221 ft 523 kts 70°
2026-04-24 01:45 30.38185 -139.04702 33203 ft 524 kts 70°
2026-04-24 01:45 30.40689 -138.96786 33211 ft 523 kts 70°
2026-04-24 01:46 30.43178 -138.88865 33220 ft 523 kts 70°
2026-04-24 01:46 30.45666 -138.80931 33219 ft 524 kts 70°
2026-04-24 01:47 30.48178 -138.72980 33212 ft 526 kts 70°
2026-04-24 01:47 30.50675 -138.65013 33205 ft 526 kts 70°
2026-04-24 01:48 30.53168 -138.57029 33217 ft 526 kts 70°
2026-04-24 01:48 30.55662 -138.49032 33216 ft 527 kts 70°
2026-04-24 01:49 30.58149 -138.41022 33217 ft 528 kts 70°
2026-04-24 01:49 30.60641 -138.33003 33218 ft 529 kts 70°
2026-04-24 01:50 30.63120 -138.24964 33232 ft 529 kts 70°
2026-04-24 01:50 30.65611 -138.16914 33220 ft 529 kts 70°
2026-04-24 01:51 30.67673 -138.10217 33224 ft 530 kts 70°
2026-04-24 02:17 30.69898 -138.03063 33224 ft 530 kts 70°
2026-04-24 02:17 30.72364 -137.94993 33249 ft 530 kts 70°
2026-04-24 02:18 30.74816 -137.86903 33238 ft 531 kts 70°
2026-04-24 02:18 30.77273 -137.78815 33226 ft 531 kts 70°
2026-04-24 02:19 30.79746 -137.70718 33236 ft 531 kts 70°
2026-04-24 02:19 30.82212 -137.62623 33230 ft 531 kts 70°
2026-04-24 02:20 30.91588 -137.31505 33241 ft 531 kts 70°
2026-04-24 02:20 31.01360 -136.98752 33225 ft 532 kts 70°
2026-04-24 02:21 31.11022 -136.66023 33231 ft 535 kts 70°
2026-04-24 02:21 31.20661 -136.33075 33232 ft 537 kts 70°
2026-04-24 02:22 31.30148 -136.00152 33235 ft 539 kts 70°
2026-04-24 02:22 31.39691 -135.66831 33250 ft 540 kts 70°
2026-04-24 02:23 31.49140 -135.33363 33244 ft 543 kts 70°
2026-04-24 02:23 31.58566 -134.99691 33234 ft 544 kts 70°
2026-04-24 02:24 31.67897 -134.65909 33255 ft 544 kts 70°
2026-04-24 02:24 31.77111 -134.32101 33249 ft 543 kts 70°
2026-04-24 02:25 31.86273 -133.98232 33268 ft 543 kts 70°
2026-04-24 02:25 31.95331 -133.64256 33264 ft 544 kts 70°
2026-04-24 02:26 32.04321 -133.30141 33262 ft 546 kts 70°
2026-04-24 02:26 32.13235 -132.95910 33287 ft 546 kts 71°
2026-04-24 02:27 32.18242 -132.79062 33177 ft 540 kts 57°
2026-04-24 02:27 32.25266 -132.63384 32976 ft 537 kts 58°
2026-04-24 02:27 32.38999 -132.32217 33014 ft 537 kts 59°
2026-04-24 02:28 32.52769 -132.00673 33014 ft 535 kts 60°
2026-04-24 02:28 32.66258 -131.69542 33024 ft 534 kts 61°
2026-04-24 02:29 32.79699 -131.38210 33038 ft 533 kts 61°
2026-04-24 02:29 32.93059 -131.06798 33061 ft 532 kts 62°
2026-04-24 02:30 33.06373 -130.75239 33054 ft 531 kts 62°
2026-04-24 02:30 33.19577 -130.43675 33135 ft 529 kts 62°
2026-04-24 02:31 33.32664 -130.12047 33150 ft 525 kts 63°
2026-04-24 02:31 33.45676 -129.80354 33244 ft 526 kts 63°
2026-04-24 02:32 33.58618 -129.48536 33304 ft 525 kts 63°
2026-04-24 02:32 33.71427 -129.16700 33399 ft 527 kts 64°
2026-04-24 02:33 33.84187 -128.84748 33383 ft 529 kts 64°
2026-04-24 02:33 33.86930 -128.67691 33371 ft 517 kts 91°
2026-04-24 02:33 33.87453 -128.50182 33370 ft 525 kts 91°
2026-04-24 02:34 33.88337 -128.15157 33325 ft 525 kts 91°
2026-04-24 02:34 33.89104 -127.80033 33261 ft 532 kts 92°
2026-04-24 02:35 33.89783 -127.44758 33156 ft 532 kts 92°
2026-04-24 02:35 33.90360 -127.09299 33097 ft 535 kts 91°
2026-04-24 02:36 33.90831 -126.73802 33036 ft 534 kts 91°
2026-04-24 02:36 33.91212 -126.38259 33090 ft 528 kts 91°
2026-04-24 02:37 33.91265 -126.32886 33242 ft 530 kts 91°
2026-04-24 02:37 33.91304 -126.28448 33239 ft 531 kts 91°
2026-04-24 02:37 33.91370 -126.19543 33200 ft 532 kts 91°
2026-04-24 02:38 33.91432 -126.10632 33204 ft 533 kts 91°
2026-04-24 02:38 33.91483 -126.01709 33210 ft 533 kts 91°
2026-04-24 02:39 33.91536 -125.92773 33211 ft 534 kts 91°
2026-04-24 02:39 33.91583 -125.83828 33214 ft 534 kts 91°
2026-04-24 02:40 33.91621 -125.74886 33215 ft 534 kts 91°
2026-04-24 02:40 33.91646 -125.65951 33221 ft 534 kts 91°
2026-04-24 02:41 33.91670 -125.57001 33203 ft 533 kts 91°
2026-04-24 02:41 33.91705 -125.48071 33203 ft 534 kts 91°
2026-04-24 02:42 33.91728 -125.39132 33208 ft 534 kts 91°
2026-04-24 02:42 33.91734 -125.30201 33206 ft 534 kts 91°
2026-04-24 02:43 33.91724 -125.21258 33210 ft 534 kts 91°
2026-04-24 02:43 33.91713 -125.12330 33209 ft 533 kts 91°
2026-04-24 02:44 33.91699 -125.03400 33208 ft 533 kts 91°
2026-04-24 02:44 33.91705 -124.94590 33205 ft 533 kts 89°
2026-04-24 02:45 33.92806 -124.85779 33177 ft 533 kts 76°
2026-04-24 02:45 33.94469 -124.77075 33175 ft 534 kts 76°
2026-04-24 02:46 33.96116 -124.68343 33183 ft 534 kts 76°
2026-04-24 02:46 33.97749 -124.59609 33182 ft 534 kts 77°
2026-04-24 02:47 33.99373 -124.50873 33181 ft 534 kts 77°
2026-04-24 02:47 34.01001 -124.42132 33183 ft 534 kts 76°
2026-04-24 02:48 34.02622 -124.33388 33186 ft 535 kts 76°
2026-04-24 02:48 34.04242 -124.24643 33188 ft 535 kts 77°
2026-04-24 02:49 34.05845 -124.15889 33192 ft 534 kts 77°
2026-04-24 02:49 34.07441 -124.07149 33189 ft 533 kts 77°
2026-04-24 02:50 34.09029 -123.98421 33183 ft 533 kts 77°
2026-04-24 02:50 34.10607 -123.89697 33188 ft 532 kts 77°
2026-04-24 02:51 34.12176 -123.80984 33183 ft 531 kts 77°
2026-04-24 02:51 34.13737 -123.72327 33182 ft 530 kts 77°
2026-04-24 02:52 34.15293 -123.63633 33186 ft 529 kts 77°
2026-04-24 02:52 34.16838 -123.54959 33183 ft 528 kts 77°
2026-04-24 02:53 34.18373 -123.46301 33174 ft 527 kts 77°
2026-04-24 02:53 34.19892 -123.37659 33171 ft 526 kts 77°
2026-04-24 02:54 34.21412 -123.29017 33167 ft 526 kts 77°
2026-04-24 02:54 34.22936 -123.20369 33123 ft 527 kts 77°
2026-04-24 02:55 34.24417 -123.11684 33123 ft 529 kts 81°
2026-04-24 02:55 34.24643 -123.02817 33137 ft 528 kts 94°
2026-04-24 02:56 34.24232 -122.93954 33141 ft 529 kts 94°
2026-04-24 02:56 34.23911 -122.86579 33150 ft 529 kts 94°
2026-04-24 02:57 34.23522 -122.77717 33154 ft 528 kts 94°
2026-04-24 02:57 34.23111 -122.68875 33149 ft 527 kts 94°
2026-04-24 02:58 34.22697 -122.60034 33160 ft 526 kts 95°
2026-04-24 02:58 34.22286 -122.51223 33134 ft 524 kts 94°
2026-04-24 02:59 34.21861 -122.42422 33127 ft 525 kts 94°
2026-04-24 02:59 34.21430 -122.33615 33125 ft 525 kts 95°
2026-04-24 03:00 34.20992 -122.24808 33137 ft 525 kts 95°
2026-04-24 03:00 34.20536 -122.16004 33140 ft 525 kts 95°
2026-04-24 03:01 34.20085 -122.07199 33157 ft 525 kts 95°
2026-04-24 03:01 34.19636 -121.98396 33132 ft 525 kts 95°
2026-04-24 03:02 34.19172 -121.89599 33125 ft 524 kts 95°
2026-04-24 03:02 34.18701 -121.80878 33099 ft 524 kts 95°
2026-04-24 03:03 34.18221 -121.72032 33105 ft 524 kts 95°
2026-04-24 03:03 34.17757 -121.63299 33108 ft 524 kts 95°
2026-04-24 03:04 34.17279 -121.54509 33100 ft 524 kts 95°
2026-04-24 03:04 34.16777 -121.45727 33104 ft 524 kts 95°
2026-04-24 03:05 34.16275 -121.36950 33089 ft 524 kts 95°
2026-04-24 03:05 34.15767 -121.28176 33081 ft 524 kts 95°
2026-04-24 03:06 34.15253 -121.19398 33100 ft 524 kts 95°
2026-04-24 03:06 34.14739 -121.10640 33079 ft 523 kts 95°
2026-04-24 03:07 34.14215 -121.01886 33075 ft 523 kts 95°
2026-04-24 03:07 34.14337 -120.93192 33082 ft 523 kts 84°
2026-04-24 03:08 34.14699 -120.88832 32892 ft 519 kts 84°
2026-04-24 03:08 34.15400 -120.80266 32376 ft 508 kts 84°
2026-04-24 03:08 34.15738 -120.76034 32062 ft 506 kts 84°
2026-04-24 03:09 34.16076 -120.71778 31151 ft 511 kts 84°
2026-04-24 03:09 34.16412 -120.67549 30857 ft 502 kts 84°
2026-04-24 03:09 34.16744 -120.63393 30302 ft 493 kts 84°
2026-04-24 03:09 34.17070 -120.59295 29467 ft 486 kts 84°
2026-04-24 03:10 34.17390 -120.55259 28640 ft 479 kts 84°
2026-04-24 03:10 34.17705 -120.51280 27799 ft 473 kts 84°
2026-04-24 03:10 34.18021 -120.47302 26096 ft 483 kts 84°
2026-04-24 03:10 34.18345 -120.43184 24061 ft 502 kts 84°
2026-04-24 03:11 34.18674 -120.38949 22510 ft 506 kts 84°
2026-04-24 03:11 34.18997 -120.34770 21614 ft 492 kts 84°
2026-04-24 03:11 34.19301 -120.30692 20773 ft 483 kts 85°
2026-04-24 03:11 34.19528 -120.26653 20434 ft 485 kts 86°
2026-04-24 03:12 34.19688 -120.22579 20163 ft 482 kts 88°
2026-04-24 03:12 34.19806 -120.18598 19919 ft 466 kts 88°
2026-04-24 03:12 34.19909 -120.14745 19666 ft 452 kts 88°
2026-04-24 03:12 34.20012 -120.11002 19437 ft 440 kts 88°
2026-04-24 03:13 34.20129 -120.07350 19202 ft 430 kts 87°
2026-04-24 03:13 34.20208 -120.03778 18962 ft 420 kts 89°
2026-04-24 03:13 34.20207 -120.00294 18726 ft 411 kts 91°
2026-04-24 03:13 34.20153 -119.96869 18483 ft 406 kts 91°
2026-04-24 03:14 34.20072 -119.93468 18240 ft 404 kts 92°
2026-04-24 03:14 34.19989 -119.90082 17978 ft 403 kts 91°
2026-04-24 03:14 34.19917 -119.86709 17715 ft 401 kts 91°
2026-04-24 03:14 34.19861 -119.83354 17452 ft 399 kts 91°
2026-04-24 03:15 34.19810 -119.80016 17200 ft 397 kts 91°
2026-04-24 03:15 34.19766 -119.76694 16944 ft 394 kts 90°
2026-04-24 03:15 34.19725 -119.73389 16695 ft 392 kts 91°
2026-04-24 03:15 34.19680 -119.70102 16439 ft 390 kts 91°
2026-04-24 03:16 34.19633 -119.66830 16190 ft 388 kts 91°
2026-04-24 03:16 34.19587 -119.63576 15943 ft 386 kts 91°
2026-04-24 03:16 34.19539 -119.60344 15698 ft 384 kts 91°
2026-04-24 03:16 34.19487 -119.57164 15461 ft 382 kts 91°
2026-04-24 03:17 34.19431 -119.53917 15213 ft 380 kts 91°
2026-04-24 03:17 34.19376 -119.50779 14974 ft 378 kts 91°
2026-04-24 03:17 34.19322 -119.47608 14740 ft 376 kts 91°
2026-04-24 03:17 34.19269 -119.44463 14509 ft 374 kts 91°
2026-04-24 03:18 34.19219 -119.41334 14255 ft 372 kts 91°
2026-04-24 03:18 34.19165 -119.38199 14022 ft 374 kts 91°
2026-04-24 03:18 34.19110 -119.35062 13833 ft 373 kts 91°
2026-04-24 03:18 34.19058 -119.31936 13474 ft 371 kts 90°
2026-04-24 03:19 34.19010 -119.28833 13084 ft 367 kts 90°
2026-04-24 03:19 34.18964 -119.25762 12701 ft 364 kts 90°
2026-04-24 03:19 34.18918 -119.22719 12320 ft 360 kts 91°
2026-04-24 03:19 34.18867 -119.19713 11939 ft 356 kts 91°
2026-04-24 03:20 34.18815 -119.16738 11566 ft 353 kts 91°
2026-04-24 03:20 34.18759 -119.13801 11316 ft 344 kts 91°
2026-04-24 03:20 34.18705 -119.10965 11191 ft 332 kts 91°
2026-04-24 03:20 34.18641 -119.08234 11054 ft 320 kts 94°
2026-04-24 03:21 34.18248 -119.05618 10825 ft 314 kts 108°
2026-04-24 03:21 34.17420 -119.03208 10589 ft 309 kts 116°
2026-04-24 03:21 34.16498 -119.00869 10356 ft 307 kts 116°
2026-04-24 03:21 34.15586 -118.98546 10116 ft 306 kts 116°
2026-04-24 03:22 34.14682 -118.96232 9928 ft 303 kts 116°
2026-04-24 03:22 34.13786 -118.93935 10015 ft 304 kts 116°
2026-04-24 03:22 34.12883 -118.91624 10016 ft 304 kts 116°
2026-04-24 03:22 34.11979 -118.89312 10008 ft 304 kts 116°
2026-04-24 03:23 34.11075 -118.87003 10014 ft 304 kts 116°
2026-04-24 03:23 34.10168 -118.84691 10007 ft 306 kts 116°
2026-04-24 03:23 34.09255 -118.82372 10008 ft 307 kts 116°
2026-04-24 03:23 34.08338 -118.80042 10013 ft 307 kts 116°
2026-04-24 03:24 34.07424 -118.77716 9999 ft 307 kts 116°
2026-04-24 03:24 34.06507 -118.75389 10002 ft 307 kts 116°
2026-04-24 03:24 34.05587 -118.73057 9762 ft 308 kts 116°
2026-04-24 03:24 34.04675 -118.70741 9488 ft 303 kts 116°
2026-04-24 03:25 34.03789 -118.68470 9311 ft 295 kts 116°
2026-04-24 03:25 34.03039 -118.66189 9012 ft 291 kts 104°
2026-04-24 03:25 34.02725 -118.63803 8769 ft 286 kts 96°
2026-04-24 03:25 34.02508 -118.61432 8552 ft 284 kts 96°
2026-04-24 03:26 34.02293 -118.59110 8343 ft 282 kts 96°
2026-04-24 03:26 34.02074 -118.56768 8115 ft 280 kts 96°
2026-04-24 03:26 34.01856 -118.54437 7863 ft 281 kts 96°
2026-04-24 03:26 34.01633 -118.52068 7419 ft 283 kts 96°
2026-04-24 03:27 34.01414 -118.49737 7234 ft 276 kts 96°
2026-04-24 03:27 34.01202 -118.47475 7102 ft 267 kts 96°
2026-04-24 03:27 34.01132 -118.45290 6983 ft 256 kts 83°
2026-04-24 03:27 34.01461 -118.43207 6762 ft 251 kts 77°
2026-04-24 03:28 34.01814 -118.41167 6556 ft 247 kts 77°
2026-04-24 03:28 34.02159 -118.39164 6336 ft 247 kts 78°
2026-04-24 03:28 34.02513 -118.37101 5946 ft 249 kts 78°
2026-04-24 03:28 34.02842 -118.35046 5572 ft 251 kts 80°
2026-04-24 03:29 34.03086 -118.32964 5201 ft 252 kts 82°
2026-04-24 03:29 34.03296 -118.30858 4831 ft 253 kts 83°
2026-04-24 03:29 34.03502 -118.28749 4453 ft 254 kts 83°
2026-04-24 03:29 34.03717 -118.26632 4076 ft 255 kts 82°
2026-04-24 03:30 34.03940 -118.24502 3703 ft 256 kts 82°
2026-04-24 03:30 34.04169 -118.22374 3342 ft 257 kts 82°
2026-04-24 03:30 34.04402 -118.20234 2935 ft 258 kts 82°
2026-04-24 03:30 34.04638 -118.18096 2667 ft 255 kts 82°
2026-04-24 03:31 34.04866 -118.16034 2611 ft 239 kts 82°
2026-04-24 03:31 34.04969 -118.14062 2593 ft 233 kts 99°
2026-04-24 03:31 34.04316 -118.12333 2607 ft 228 kts 133°
2026-04-24 03:31 34.03010 -118.11332 2609 ft 224 kts 166°
2026-04-24 03:32 34.01486 -118.11356 2610 ft 220 kts 201°
2026-04-24 03:32 34.00233 -118.12355 2507 ft 216 kts 227°
2026-04-24 03:32 33.99224 -118.13702 2358 ft 216 kts 230°
2026-04-24 03:32 33.98262 -118.15087 2203 ft 216 kts 231°
2026-04-24 03:33 33.97303 -118.16470 2086 ft 214 kts 231°
2026-04-24 03:33 33.96355 -118.17844 2020 ft 213 kts 232°
2026-04-24 03:33 33.95672 -118.19411 2000 ft 213 kts 255°
2026-04-24 03:33 33.95456 -118.21180 2007 ft 214 kts 263°
2026-04-24 03:34 33.95285 -118.22934 2008 ft 213 kts 263°
2026-04-24 03:34 33.95114 -118.24655 1996 ft 190 kts 263°
2026-04-24 03:34 33.94971 -118.26083 1991 ft 161 kts 263°
2026-04-24 03:34 33.94841 -118.27367 1848 ft 149 kts 262°
2026-04-24 03:35 33.94718 -118.28582 1680 ft 145 kts 262°
2026-04-24 03:35 33.94598 -118.29773 1494 ft 142 kts 262°
2026-04-24 03:35 33.94479 -118.30950 1312 ft 142 kts 262°
2026-04-24 03:35 33.94359 -118.32128 1126 ft 142 kts 262°
2026-04-24 03:36 33.94235 -118.33310 952 ft 142 kts 262°
2026-04-24 03:36 33.94124 -118.34481 769 ft 141 kts 263°
2026-04-24 03:36 33.94017 -118.35643 614 ft 138 kts 262°
2026-04-24 03:36 33.93885 -118.36784 430 ft 137 kts 263°
2026-04-24 03:37 33.93776 -118.37921 217 ft 136 kts 261°
2026-04-24 03:37 33.93665 -118.39042 100 ft 129 kts 261°
2026-04-24 03:37 33.93567 -118.39940 96 ft 84 kts 263°
2026-04-24 03:37 33.93517 -118.40441 95 ft 44 kts 262°
2026-04-24 03:38 33.93480 -118.40749 94 ft 33 kts 262°
2026-04-24 03:38 33.93490 -118.41005 95 ft 28 kts 280°
2026-04-24 03:38 33.93533 -118.41155 94 ft 10 kts 294°
2026-04-24 03:38 33.93546 -118.41188 95 ft 2 kts 298°
2026-04-24 03:39 33.93549 -118.41193 95 ft 0 kts 298°
2026-04-24 03:39 33.93553 -118.41202 97 ft 7 kts 302°
2026-04-24 03:40 33.93619 -118.41261 97 ft 9 kts 342°
2026-04-24 03:40 33.93685 -118.41275 96 ft 10 kts 355°
2026-04-24 03:40 33.93749 -118.41242 96 ft 11 kts 68°
2026-04-24 03:40 33.93762 -118.41140 94 ft 13 kts 85°
2026-04-24 03:41 33.93773 -118.41020 93 ft 15 kts 83°
2026-04-24 03:41 33.93785 -118.40907 94 ft 12 kts 83°
2026-04-24 03:41 33.93796 -118.40804 96 ft 13 kts 83°
2026-04-24 03:41 33.93808 -118.40696 94 ft 13 kts 82°
2026-04-24 03:42 33.93816 -118.40620 94 ft 14 kts 83°
2026-04-24 03:42 33.93836 -118.40533 97 ft 9 kts 38°
2026-04-24 03:42 33.93906 -118.40535 94 ft 11 kts 353°
2026-04-24 03:42 33.93977 -118.40545 93 ft 9 kts 352°
2026-04-24 03:43 33.94025 -118.40557 95 ft 7 kts 331°
2026-04-24 03:43 33.94040 -118.40593 97 ft 3 kts 278°
2026-04-24 03:43 33.94040 -118.40607 96 ft 1 kts 271°
2026-04-24 03:43 33.94040 -118.40615 97 ft 1 kts 270°